User: anonymous   Login
Location: Αθήνα
(37.9839°N, 23.7283°E)
Time: 14:33:09
(UTC+03:00)
Language:

JUGNU - Orbit

View from above orbital plane
View from above orbital plane
View from above satellite
View from above satellite

Ground track
Ground track

The orbit data is extracted from the following two-line orbital elements,

1 37839U 11058B   24170.04502024  .00000540  00000-0  14374-3 0  9997
2 37839  19.9618  56.6899 0018657 306.1340 189.4071 14.13224441655847
Epoch (UTC): 18 June 2024 01:04:49
Eccentricity: 0.0018657
inclination: 19.9618°
perigee height: 835 km
apogee height: 862 km
right ascension of ascending node: 56.6899°
argument of perigee: 306.1340°
revolutions per day: 14.13224441
mean anomaly at epoch: 189.4071°
orbit number at epoch: 65584

The dashed part of the orbit path shows where the satellite is in the earth's shadow,  

DLR